When you browse on this site, cookies collect data to enhance your experience and personalize the content and advertising you see.
Visit our Privacy Policy to learn more. By continuing to use the site, you agree to this use of cookies and data.
  • In Spain
  • List of Countries
  • For 7 days
  • Water Temperature
  • Weather Map
  • Weather Widgets
  • user-avatar
    Login

    Hourly Weather Worcester

    Today, 17 September, Tuesday

    Time Temperature Precipitation Wind Pressure Humidity
    00:00 +9°C° 0 mm 2 mps 764 mmHg 91%
    01:00 +9°C° 0 mm 2 mps 764 mmHg 92%
    02:00 +9°C° 0 mm 2 mps 764 mmHg 92%
    03:00 +8°C° 0 mm 2 mps 763 mmHg 93%
    04:00 +8°C° 0 mm 2 mps 764 mmHg 93%
    05:00 +8°C° 0 mm 2 mps 764 mmHg 93%
    06:00 +8°C° 0 mm 2 mps 764 mmHg 93%
    07:00 +10°C° 0 mm 2 mps 765 mmHg 86%
    08:00 +11°C° 0 mm 3 mps 765 mmHg 79%
    09:00 +13°C° 0 mm 3 mps 765 mmHg 73%
    10:00 +14°C° 0 mm 4 mps 765 mmHg 69%
    11:00 +15°C° 0 mm 4 mps 765 mmHg 66%
    12:00 +17°C° 0 mm 4 mps 765 mmHg 62%
    13:00 +17°C° 0 mm 4 mps 765 mmHg 61%
    14:00 +17°C° 0 mm 4 mps 765 mmHg 61%
    15:00 +17°C° 0 mm 4 mps 765 mmHg 60%
    16:00 +16°C° 0 mm 3 mps 765 mmHg 65%
    17:00 +14°C° 0 mm 3 mps 765 mmHg 70%
    18:00 +13°C° 0 mm 3 mps 765 mmHg 74%
    19:00 +12°C° 0 mm 3 mps 766 mmHg 77%
    20:00 +12°C° 0 mm 2 mps 766 mmHg 80%
    21:00 +9°C° 0 mm 2 mps 767 mmHg 83%
    22:00 +9°C° 0 mm 2 mps 767 mmHg 84%
    23:00 +8°C° 0 mm 2 mps 767 mmHg 85%

    Tomorrow, 18 September, Wednesday

    Time Temperature Precipitation Wind Pressure Humidity
    00:00 +9°C° 0 mm 1 mps 767 mmHg 86%
    01:00 +8°C° 0 mm 1 mps 767 mmHg 86%
    02:00 +8°C° 0 mm 1 mps 768 mmHg 86%
    03:00 +7°C° 0 mm 0 mps 768 mmHg 86%
    04:00 +7°C° 0 mm 0 mps 768 mmHg 86%
    05:00 +6°C° 0 mm 0 mps 768 mmHg 86%
    06:00 +6°C° 0 mm 0 mps 768 mmHg 86%
    07:00 +8°C° 0 mm 0 mps 768 mmHg 79%
    08:00 +10°C° 0 mm 0 mps 769 mmHg 73%
    09:00 +12°C° 0 mm 0 mps 769 mmHg 66%
    10:00 +13°C° 0 mm 0 mps 769 mmHg 62%
    11:00 +15°C° 0 mm 0 mps 768 mmHg 58%
    12:00 +18°C° 0 mm 1 mps 768 mmHg 54%
    13:00 +18°C° 0 mm 1 mps 768 mmHg 53%
    14:00 +19°C° 0 mm 1 mps 768 mmHg 53%
    15:00 +19°C° 0 mm 1 mps 768 mmHg 52%
    16:00 +18°C° 0 mm 1 mps 768 mmHg 58%
    17:00 +16°C° 0 mm 1 mps 768 mmHg 63%
    18:00 +15°C° 0 mm 1 mps 767 mmHg 69%
    19:00 +14°C° 0 mm 1 mps 768 mmHg 73%
    20:00 +13°C° 0 mm 1 mps 768 mmHg 76%
    21:00 +12°C° 0 mm 1 mps 769 mmHg 79%
    22:00 +11°C° 0 mm 1 mps 769 mmHg 80%
    23:00 +11°C° 0 mm 1 mps 769 mmHg 80%

    Day after tomorrow, 19 September, Thursday

    Time Temperature Precipitation Wind Pressure Humidity
    00:00 +11°C° 0 mm 1 mps 769 mmHg 81%
    01:00 +10°C° 0 mm 1 mps 768 mmHg 82%
    02:00 +10°C° 0 mm 1 mps 768 mmHg 83%
    03:00 +10°C° 0 mm 1 mps 768 mmHg 84%
    04:00 +9°C° 0 mm 1 mps 768 mmHg 85%
    05:00 +9°C° 0 mm 1 mps 768 mmHg 87%
    06:00 +9°C° 0 mm 1 mps 768 mmHg 88%
    07:00 +11°C° 0 mm 1 mps 769 mmHg 82%
    08:00 +13°C° 0 mm 1 mps 769 mmHg 76%
    09:00 +15°C° 0 mm 1 mps 769 mmHg 70%
    10:00 +16°C° 0 mm 1 mps 769 mmHg 65%
    11:00 +17°C° 0 mm 0 mps 769 mmHg 60%
    12:00 +18°C° 0 mm 0 mps 769 mmHg 55%
    13:00 +19°C° 0 mm 0 mps 769 mmHg 54%
    14:00 +19°C° 0 mm 0 mps 768 mmHg 53%
    15:00 +20°C° 0 mm 0 mps 768 mmHg 51%
    16:00 +18°C° 0 mm 0 mps 768 mmHg 57%
    17:00 +17°C° 0 mm 0 mps 768 mmHg 62%
    18:00 +15°C° 0 mm 0 mps 768 mmHg 68%
    19:00 +14°C° 0 mm 0 mps 768 mmHg 71%
    20:00 +14°C° 0 mm 0 mps 768 mmHg 74%
    21:00 +13°C° 0 mm 0 mps 768 mmHg 77%
    22:00 +12°C° 0 mm 0 mps 768 mmHg 79%
    23:00 +12°C° 0 mm 0 mps 768 mmHg 81%

    20 September, Friday

    Time Temperature Precipitation Wind Pressure Humidity
    00:00 +12°C° 0 mm 0 mps 768 mmHg 82%
    01:00 +11°C° 0 mm 0 mps 767 mmHg 84%
    02:00 +12°C° 0 mm 1 mps 767 mmHg 85%
    03:00 +12°C° 0 mm 1 mps 767 mmHg 86%
    04:00 +11°C° 0 mm 1 mps 767 mmHg 87%
    05:00 +11°C° 0 mm 1 mps 766 mmHg 88%
    06:00 +11°C° 0 mm 1 mps 766 mmHg 89%
    07:00 +12°C° 0 mm 2 mps 766 mmHg 84%
    08:00 +14°C° 0 mm 2 mps 766 mmHg 79%
    09:00 +16°C° 0 mm 3 mps 766 mmHg 74%
    10:00 +17°C° 0 mm 3 mps 765 mmHg 70%
    11:00 +18°C° 0 mm 4 mps 765 mmHg 66%
    12:00 +20°C° 0 mm 5 mps 765 mmHg 62%
    13:00 +20°C° 0 mm 5 mps 764 mmHg 59%
    14:00 +20°C° 0 mm 5 mps 763 mmHg 56%
    15:00 +21°C° 0 mm 5 mps 762 mmHg 54%
    16:00 +19°C° 0 mm 5 mps 762 mmHg 57%
    17:00 +18°C° 0 mm 4 mps 761 mmHg 61%
    18:00 +15°C° 0 mm 4 mps 761 mmHg 65%
    19:00 +14°C° 0 mm 4 mps 761 mmHg 66%
    20:00 +13°C° 0 mm 4 mps 760 mmHg 67%
    21:00 +12°C° 0 mm 4 mps 760 mmHg 68%
    22:00 +12°C° 0 mm 4 mps 760 mmHg 68%
    23:00 +11°C° 0 mm 4 mps 759 mmHg 69%

    21 September, Saturday

    Time Temperature Precipitation Wind Pressure Humidity
    00:00 +11°C° 0 mm 4 mps 759 mmHg 69%
    01:00 +11°C° 0 mm 4 mps 758 mmHg 70%
    02:00 +11°C° 0 mm 3 mps 758 mmHg 72%
    03:00 +11°C° 0 mm 3 mps 757 mmHg 73%
    04:00 +10°C° 0 mm 3 mps 756 mmHg 75%
    05:00 +10°C° 0 mm 3 mps 756 mmHg 78%
    06:00 +9°C° 0 mm 3 mps 755 mmHg 80%
    07:00 +11°C° 0 mm 3 mps 755 mmHg 76%
    08:00 +13°C° 0 mm 4 mps 755 mmHg 72%
    09:00 +14°C° 0 mm 4 mps 755 mmHg 68%
    10:00 +17°C° 0 mm 4 mps 754 mmHg 64%
    11:00 +19°C° 0 mm 5 mps 754 mmHg 61%
    12:00 +21°C° 0 mm 5 mps 753 mmHg 57%
    13:00 +22°C° 0 mm 5 mps 753 mmHg 59%
    14:00 +22°C° 0 mm 5 mps 752 mmHg 60%
    15:00 +23°C° 0 mm 5 mps 752 mmHg 62%
    16:00 +22°C° 0.1 mm 5 mps 751 mmHg 69%
    17:00 +20°C° 0.1 mm 4 mps 751 mmHg 76%
    18:00 +19°C° 0.1 mm 4 mps 751 mmHg 83%
    19:00 +18°C° 0.5 mm 3 mps 751 mmHg 87%
    20:00 +18°C° 0.5 mm 3 mps 751 mmHg 90%
    21:00 +17°C° 0.5 mm 3 mps 751 mmHg 94%
    22:00 +17°C° 0.1 mm 4 mps 750 mmHg 94%
    23:00 +17°C° 0.1 mm 4 mps 750 mmHg 94%

    22 September, Sunday

    Time Temperature Precipitation Wind Pressure Humidity
    00:00 +15°C° 0.1 mm 5 mps 750 mmHg 94%
    01:00 +15°C° 0 mm 5 mps 750 mmHg 94%
    02:00 +15°C° 0 mm 5 mps 750 mmHg 94%
    03:00 +15°C° 0 mm 5 mps 750 mmHg 94%
    04:00 +15°C° 0.7 mm 5 mps 750 mmHg 94%
    05:00 +15°C° 0.7 mm 4 mps 750 mmHg 94%
    06:00 +17°C° 0.7 mm 4 mps 750 mmHg 94%
    07:00 +17°C° 0.8 mm 4 mps 751 mmHg 90%
    08:00 +17°C° 0.8 mm 4 mps 751 mmHg 85%
    09:00 +17°C° 0.8 mm 4 mps 751 mmHg 80%
    10:00 +16°C° 0.2 mm 5 mps 751 mmHg 77%
    11:00 +17°C° 0.2 mm 5 mps 752 mmHg 74%
    12:00 +17°C° 0.2 mm 6 mps 752 mmHg 71%
    13:00 +17°C° 0 mm 6 mps 752 mmHg 68%
    14:00 +18°C° 0 mm 7 mps 752 mmHg 65%
    15:00 +18°C° 0 mm 7 mps 752 mmHg 62%
    16:00 +17°C° 0 mm 6 mps 753 mmHg 67%
    17:00 +15°C° 0 mm 5 mps 753 mmHg 71%
    18:00 +14°C° 0 mm 4 mps 754 mmHg 76%
    19:00 +13°C° 0 mm 4 mps 755 mmHg 80%
    20:00 +13°C° 0 mm 4 mps 755 mmHg 84%
    21:00 +12°C° 0 mm 4 mps 756 mmHg 88%
    22:00 +12°C° 0 mm 4 mps 756 mmHg 89%
    23:00 +11°C° 0 mm 4 mps 757 mmHg 91%
    Show more